Weather Data 2026-09-01
| Time | Wind Dr | Wind Spd mph |
Wind Gust mph |
Hum In % |
Humid % |
TempI F |
Temp F |
Raw Bar in |
Tot Rain in |
UV | Solar W/sqm |
DailyRain in |
HourRain in |
24HrRain in |
RainRate in |
|---|---|---|---|---|---|---|---|---|---|---|---|---|---|---|---|
| 09/01/26 12:01:27 AM | 30 | 0.0 | 0.0 | 51 | 62 | 75.5 | 67.9 | 29.933 | 7.41 | 0.0 | 0 | 0.00 | 0.00 | 0.00 | 0.00 |
| 09/01/26 12:02:21 AM | 30 | 0.0 | 0.0 | 51 | 62 | 75.5 | 67.9 | 29.932 | 7.41 | 0.0 | 0 | 0.00 | 0.00 | 0.00 | 0.00 |
| 09/01/26 12:03:31 AM | 30 | 0.0 | 0.0 | 51 | 62 | 75.5 | 67.9 | 29.935 | 7.41 | 0.0 | 0 | 0.00 | 0.00 | 0.00 | 0.00 |
| 09/01/26 12:04:19 AM | 30 | 0.0 | 0.0 | 51 | 62 | 75.5 | 67.9 | 29.934 | 7.41 | 0.0 | 0 | 0.00 | 0.00 | 0.00 | 0.00 |
| 09/01/26 12:05:34 AM | 30 | 0.0 | 0.0 | 51 | 62 | 75.5 | 67.9 | 29.935 | 7.41 | 0.0 | 0 | 0.00 | 0.00 | 0.00 | 0.00 |
| 09/01/26 12:08:44 AM | 30 | 0.0 | 0.0 | 51 | 62 | 75.6 | 67.8 | 29.932 | 7.41 | 0.0 | 0 | 0.00 | 0.00 | 0.00 | 0.00 |
| 09/01/26 12:09:33 AM | 32 | 0.0 | 0.0 | 51 | 62 | 75.6 | 67.8 | 29.932 | 7.41 | 0.0 | 0 | 0.00 | 0.00 | 0.00 | 0.00 |
| 09/01/26 12:10:27 AM | 32 | 0.0 | 0.0 | 51 | 62 | 75.6 | 67.8 | 29.931 | 7.41 | 0.0 | 0 | 0.00 | 0.00 | 0.00 | 0.00 |
| 09/01/26 12:11:33 AM | 29 | 0.0 | 0.0 | 51 | 62 | 75.6 | 67.7 | 29.933 | 7.41 | 0.0 | 0 | 0.00 | 0.00 | 0.00 | 0.00 |
| 09/01/26 12:12:25 AM | 29 | 0.0 | 0.0 | 51 | 62 | 75.6 | 67.7 | 29.933 | 7.41 | 0.0 | 0 | 0.00 | 0.00 | 0.00 | 0.00 |
| 09/01/26 12:13:16 AM | 30 | 0.0 | 0.0 | 51 | 62 | 75.6 | 67.7 | 29.934 | 7.41 | 0.0 | 0 | 0.00 | 0.00 | 0.00 | 0.00 |
| 09/01/26 12:14:28 AM | 29 | 0.0 | 0.0 | 51 | 62 | 75.5 | 67.7 | 29.934 | 7.41 | 0.0 | 0 | 0.00 | 0.00 | 0.00 | 0.00 |
| 09/01/26 12:15:22 AM | 32 | 0.0 | 0.0 | 51 | 62 | 75.6 | 67.7 | 29.932 | 7.41 | 0.0 | 0 | 0.00 | 0.00 | 0.00 | 0.00 |
| 09/01/26 12:16:29 AM | 29 | 0.0 | 0.0 | 51 | 62 | 75.5 | 67.7 | 29.934 | 7.41 | 0.0 | 0 | 0.00 | 0.00 | 0.00 | 0.00 |
| 09/01/26 12:17:20 AM | 31 | 0.0 | 0.0 | 51 | 62 | 75.6 | 67.7 | 29.934 | 7.41 | 0.0 | 0 | 0.00 | 0.00 | 0.00 | 0.00 |
| 09/01/26 12:18:32 AM | 32 | 0.0 | 0.0 | 51 | 62 | 75.5 | 67.7 | 29.934 | 7.41 | 0.0 | 0 | 0.00 | 0.00 | 0.00 | 0.00 |
| 09/01/26 12:19:24 AM | 32 | 0.0 | 0.0 | 51 | 62 | 75.5 | 67.7 | 29.934 | 7.41 | 0.0 | 0 | 0.00 | 0.00 | 0.00 | 0.00 |
| 09/01/26 12:20:33 AM | 30 | 0.0 | 0.0 | 51 | 62 | 75.5 | 67.7 | 29.934 | 7.41 | 0.0 | 0 | 0.00 | 0.00 | 0.00 | 0.00 |
| 09/01/26 12:21:21 AM | 32 | 0.0 | 0.0 | 51 | 62 | 75.5 | 67.6 | 29.932 | 7.41 | 0.0 | 0 | 0.00 | 0.00 | 0.00 | 0.00 |
| 09/01/26 12:22:34 AM | 32 | 0.0 | 0.0 | 51 | 62 | 75.5 | 67.6 | 29.933 | 7.41 | 0.0 | 0 | 0.00 | 0.00 | 0.00 | 0.00 |
| 09/01/26 12:23:25 AM | 28 | 0.0 | 0.0 | 51 | 62 | 75.4 | 67.6 | 29.933 | 7.41 | 0.0 | 0 | 0.00 | 0.00 | 0.00 | 0.00 |
| 09/01/26 12:24:16 AM | 29 | 0.0 | 0.0 | 51 | 62 | 75.5 | 67.6 | 29.932 | 7.41 | 0.0 | 0 | 0.00 | 0.00 | 0.00 | 0.00 |
| 09/01/26 12:25:29 AM | 34 | 0.0 | 0.0 | 51 | 62 | 75.5 | 67.6 | 29.934 | 7.41 | 0.0 | 0 | 0.00 | 0.00 | 0.00 | 0.00 |
| 09/01/26 12:26:23 AM | 29 | 0.0 | 0.0 | 51 | 63 | 75.5 | 67.6 | 29.936 | 7.41 | 0.0 | 0 | 0.00 | 0.00 | 0.00 | 0.00 |
| 09/01/26 12:27:30 AM | 30 | 0.0 | 0.0 | 51 | 63 | 75.4 | 67.5 | 29.936 | 7.41 | 0.0 | 0 | 0.00 | 0.00 | 0.00 | 0.00 |
| 09/01/26 12:28:21 AM | 25 | 0.0 | 0.0 | 51 | 63 | 75.4 | 67.5 | 29.934 | 7.41 | 0.0 | 0 | 0.00 | 0.00 | 0.00 | 0.00 |
| 09/01/26 12:29:34 AM | 32 | 0.0 | 0.0 | 51 | 63 | 75.4 | 67.5 | 29.936 | 7.41 | 0.0 | 0 | 0.00 | 0.00 | 0.00 | 0.00 |
| 09/01/26 12:30:49 AM | 31 | 0.0 | 0.0 | 51 | 63 | 75.4 | 67.5 | 29.935 | 7.41 | 0.0 | 0 | 0.00 | 0.00 | 0.00 | 0.00 |
| 09/01/26 12:31:16 AM | 28 | 0.0 | 0.0 | 51 | 63 | 75.4 | 67.5 | 29.937 | 7.41 | 0.0 | 0 | 0.00 | 0.00 | 0.00 | 0.00 |
| 09/01/26 12:32:26 AM | 29 | 0.0 | 0.0 | 51 | 63 | 75.4 | 67.5 | 29.936 | 7.41 | 0.0 | 0 | 0.00 | 0.00 | 0.00 | 0.00 |
| 09/01/26 12:33:18 AM | 29 | 0.0 | 0.0 | 51 | 63 | 75.4 | 67.5 | 29.937 | 7.41 | 0.0 | 0 | 0.00 | 0.00 | 0.00 | 0.00 |
| 09/01/26 12:34:30 AM | 32 | 0.0 | 0.0 | 51 | 63 | 75.4 | 67.4 | 29.935 | 7.41 | 0.0 | 0 | 0.00 | 0.00 | 0.00 | 0.00 |
| 09/01/26 12:35:22 AM | 30 | 0.0 | 0.0 | 51 | 63 | 75.3 | 67.4 | 29.936 | 7.41 | 0.0 | 0 | 0.00 | 0.00 | 0.00 | 0.00 |
| 09/01/26 12:36:34 AM | 32 | 0.0 | 0.0 | 51 | 63 | 75.3 | 67.4 | 29.936 | 7.41 | 0.0 | 0 | 0.00 | 0.00 | 0.00 | 0.00 |
| 09/01/26 12:37:26 AM | 32 | 0.0 | 0.0 | 51 | 63 | 75.3 | 67.4 | 29.938 | 7.41 | 0.0 | 0 | 0.00 | 0.00 | 0.00 | 0.00 |
| 09/01/26 12:38:35 AM | 29 | 0.0 | 0.0 | 51 | 63 | 75.3 | 67.4 | 29.937 | 7.41 | 0.0 | 0 | 0.00 | 0.00 | 0.00 | 0.00 |
| 09/01/26 12:39:27 AM | 30 | 0.0 | 0.0 | 51 | 63 | 75.3 | 67.4 | 29.936 | 7.41 | 0.0 | 0 | 0.00 | 0.00 | 0.00 | 0.00 |
| 09/01/26 12:40:18 AM | 30 | 0.0 | 0.0 | 51 | 63 | 75.3 | 67.4 | 29.937 | 7.41 | 0.0 | 0 | 0.00 | 0.00 | 0.00 | 0.00 |
| 09/01/26 12:41:28 AM | 26 | 0.0 | 0.0 | 51 | 63 | 75.2 | 67.4 | 29.936 | 7.41 | 0.0 | 0 | 0.00 | 0.00 | 0.00 | 0.00 |
| 09/01/26 12:42:22 AM | 30 | 0.0 | 0.0 | 51 | 63 | 75.2 | 67.4 | 29.939 | 7.41 | 0.0 | 0 | 0.00 | 0.00 | 0.00 | 0.00 |
| 09/01/26 12:43:29 AM | 32 | 0.0 | 0.0 | 51 | 63 | 75.2 | 67.4 | 29.938 | 7.41 | 0.0 | 0 | 0.00 | 0.00 | 0.00 | 0.00 |
| 09/01/26 12:44:20 AM | 26 | 0.0 | 0.0 | 51 | 63 | 75.2 | 67.4 | 29.938 | 7.41 | 0.0 | 0 | 0.00 | 0.00 | 0.00 | 0.00 |
| 09/01/26 12:45:33 AM | 29 | 0.0 | 0.0 | 51 | 63 | 75.2 | 67.4 | 29.937 | 7.41 | 0.0 | 0 | 0.00 | 0.00 | 0.00 | 0.00 |
| 09/01/26 12:46:25 AM | 32 | 0.0 | 0.0 | 51 | 63 | 75.1 | 67.4 | 29.939 | 7.41 | 0.0 | 0 | 0.00 | 0.00 | 0.00 | 0.00 |
| 09/01/26 12:47:34 AM | 32 | 0.0 | 0.0 | 51 | 63 | 75.1 | 67.3 | 29.941 | 7.41 | 0.0 | 0 | 0.00 | 0.00 | 0.00 | 0.00 |
| 09/01/26 12:48:23 AM | 34 | 0.0 | 0.0 | 51 | 63 | 75.1 | 67.3 | 29.939 | 7.41 | 0.0 | 0 | 0.00 | 0.00 | 0.00 | 0.00 |
| 09/01/26 12:49:35 AM | 30 | 0.0 | 0.0 | 51 | 63 | 75.1 | 67.3 | 29.941 | 7.41 | 0.0 | 0 | 0.00 | 0.00 | 0.00 | 0.00 |
| 09/01/26 12:50:27 AM | 31 | 0.0 | 0.0 | 51 | 63 | 75.1 | 67.3 | 29.943 | 7.41 | 0.0 | 0 | 0.00 | 0.00 | 0.00 | 0.00 |
| 09/01/26 12:51:18 AM | 32 | 0.0 | 0.0 | 51 | 63 | 75.1 | 67.2 | 29.943 | 7.41 | 0.0 | 0 | 0.00 | 0.00 | 0.00 | 0.00 |
| 09/01/26 12:52:28 AM | 32 | 0.0 | 0.0 | 51 | 63 | 75.1 | 67.2 | 29.944 | 7.41 | 0.0 | 0 | 0.00 | 0.00 | 0.00 | 0.00 |
| 09/01/26 12:53:19 AM | 32 | 0.0 | 0.0 | 51 | 63 | 75.1 | 67.2 | 29.943 | 7.41 | 0.0 | 0 | 0.00 | 0.00 | 0.00 | 0.00 |
| 09/01/26 12:54:29 AM | 30 | 0.0 | 0.0 | 51 | 63 | 75.1 | 67.2 | 29.946 | 7.41 | 0.0 | 0 | 0.00 | 0.00 | 0.00 | 0.00 |
| 09/01/26 12:55:20 AM | 28 | 0.0 | 0.0 | 51 | 63 | 75.1 | 67.2 | 29.945 | 7.41 | 0.0 | 0 | 0.00 | 0.00 | 0.00 | 0.00 |
| 09/01/26 12:56:33 AM | 32 | 0.0 | 0.0 | 51 | 63 | 75.1 | 67.2 | 29.945 | 7.41 | 0.0 | 0 | 0.00 | 0.00 | 0.00 | 0.00 |
| 09/01/26 12:57:24 AM | 31 | 0.0 | 0.0 | 51 | 63 | 75.1 | 67.2 | 29.946 | 7.41 | 0.0 | 0 | 0.00 | 0.00 | 0.00 | 0.00 |
| 09/01/26 12:58:16 AM | 29 | 0.0 | 0.0 | 51 | 64 | 75.0 | 67.1 | 29.946 | 7.41 | 0.0 | 0 | 0.00 | 0.00 | 0.00 | 0.00 |
| 09/01/26 12:59:22 AM | 29 | 0.0 | 0.0 | 51 | 64 | 75.0 | 67.1 | 29.947 | 7.41 | 0.0 | 0 | 0.00 | 0.00 | 0.00 | 0.00 |
| 09/01/26 1:00:59 AM | 32 | 0.0 | 0.0 | 51 | 64 | 75.0 | 67.1 | 29.949 | 7.41 | 0.0 | 0 | 0.00 | 0.00 | 0.00 | 0.00 |
| 09/01/26 1:01:29 AM | 31 | 0.0 | 0.0 | 51 | 64 | 75.0 | 67.1 | 29.949 | 7.41 | 0.0 | 0 | 0.00 | 0.00 | 0.00 | 0.00 |
| 09/01/26 1:02:21 AM | 34 | 0.0 | 0.0 | 51 | 64 | 75.0 | 67.0 | 29.947 | 7.41 | 0.0 | 0 | 0.00 | 0.00 | 0.00 | 0.00 |
| 09/01/26 1:03:30 AM | 29 | 0.0 | 0.0 | 51 | 63 | 75.0 | 67.0 | 29.948 | 7.41 | 0.0 | 0 | 0.00 | 0.00 | 0.00 | 0.00 |
| 09/01/26 1:04:22 AM | 28 | 0.0 | 0.0 | 51 | 63 | 75.0 | 66.9 | 29.946 | 7.41 | 0.0 | 0 | 0.00 | 0.00 | 0.00 | 0.00 |
| 09/01/26 1:05:29 AM | 32 | 0.0 | 0.0 | 51 | 63 | 75.0 | 66.9 | 29.946 | 7.41 | 0.0 | 0 | 0.00 | 0.00 | 0.00 | 0.00 |
| 09/01/26 1:06:20 AM | 29 | 0.0 | 0.0 | 51 | 63 | 74.9 | 66.8 | 29.947 | 7.41 | 0.0 | 0 | 0.00 | 0.00 | 0.00 | 0.00 |
| 09/01/26 1:07:33 AM | 30 | 0.0 | 0.0 | 51 | 63 | 74.9 | 66.8 | 29.948 | 7.41 | 0.0 | 0 | 0.00 | 0.00 | 0.00 | 0.00 |
| 09/01/26 1:08:24 AM | 28 | 0.0 | 0.0 | 51 | 64 | 74.9 | 66.8 | 29.946 | 7.41 | 0.0 | 0 | 0.00 | 0.00 | 0.00 | 0.00 |
| 09/01/26 1:09:37 AM | 32 | 0.0 | 0.0 | 51 | 64 | 74.9 | 66.8 | 29.948 | 7.41 | 0.0 | 0 | 0.00 | 0.00 | 0.00 | 0.00 |
| 09/01/26 1:10:25 AM | 32 | 0.0 | 0.0 | 51 | 64 | 74.9 | 66.8 | 29.944 | 7.41 | 0.0 | 0 | 0.00 | 0.00 | 0.00 | 0.00 |
| 09/01/26 1:11:35 AM | 31 | 0.0 | 0.0 | 51 | 64 | 74.9 | 66.8 | 29.946 | 7.41 | 0.0 | 0 | 0.00 | 0.00 | 0.00 | 0.00 |
| 09/01/26 1:12:26 AM | 32 | 0.0 | 0.0 | 51 | 64 | 74.9 | 66.8 | 29.946 | 7.41 | 0.0 | 0 | 0.00 | 0.00 | 0.00 | 0.00 |
| 09/01/26 1:13:21 AM | 34 | 0.0 | 0.0 | 51 | 64 | 74.9 | 66.7 | 29.947 | 7.41 | 0.0 | 0 | 0.00 | 0.00 | 0.00 | 0.00 |
| 09/01/26 1:14:31 AM | 26 | 0.0 | 0.0 | 51 | 64 | 74.9 | 66.7 | 29.948 | 7.41 | 0.0 | 0 | 0.00 | 0.00 | 0.00 | 0.00 |
| 09/01/26 1:15:22 AM | 29 | 3.0 | 3.0 | 51 | 64 | 74.9 | 66.7 | 29.946 | 7.41 | 0.0 | 0 | 0.00 | 0.00 | 0.00 | 0.00 |
| 09/01/26 1:16:32 AM | 31 | 1.0 | 3.0 | 51 | 64 | 74.9 | 66.7 | 29.944 | 7.41 | 0.0 | 0 | 0.00 | 0.00 | 0.00 | 0.00 |
| 09/01/26 1:17:23 AM | 28 | 2.0 | 3.0 | 51 | 64 | 74.9 | 66.7 | 29.947 | 7.41 | 0.0 | 0 | 0.00 | 0.00 | 0.00 | 0.00 |
| 09/01/26 1:18:36 AM | 29 | 1.0 | 3.0 | 51 | 64 | 74.9 | 66.7 | 29.944 | 7.41 | 0.0 | 0 | 0.00 | 0.00 | 0.00 | 0.00 |
| 09/01/26 1:19:27 AM | 32 | 2.0 | 3.0 | 51 | 64 | 74.9 | 66.7 | 29.944 | 7.41 | 0.0 | 0 | 0.00 | 0.00 | 0.00 | 0.00 |
| 09/01/26 1:20:19 AM | 32 | 2.0 | 3.0 | 51 | 64 | 74.9 | 66.7 | 29.942 | 7.41 | 0.0 | 0 | 0.00 | 0.00 | 0.00 | 0.00 |
| 09/01/26 1:21:25 AM | 34 | 3.0 | 3.0 | 51 | 64 | 74.9 | 66.6 | 29.944 | 7.41 | 0.0 | 0 | 0.00 | 0.00 | 0.00 | 0.00 |
| 09/01/26 1:22:20 AM | 26 | 3.0 | 3.0 | 51 | 64 | 74.9 | 66.7 | 29.941 | 7.41 | 0.0 | 0 | 0.00 | 0.00 | 0.00 | 0.00 |
| 09/01/26 1:23:32 AM | 29 | 2.0 | 3.0 | 51 | 64 | 74.8 | 66.7 | 29.942 | 7.41 | 0.0 | 0 | 0.00 | 0.00 | 0.00 | 0.00 |
| 09/01/26 1:24:24 AM | 32 | 1.0 | 3.0 | 51 | 64 | 74.8 | 66.7 | 29.941 | 7.41 | 0.0 | 0 | 0.00 | 0.00 | 0.00 | 0.00 |
| 09/01/26 1:25:37 AM | 26 | 2.0 | 3.0 | 51 | 64 | 74.8 | 66.7 | 29.943 | 7.41 | 0.0 | 0 | 0.00 | 0.00 | 0.00 | 0.00 |
| 09/01/26 1:26:25 AM | 32 | 2.0 | 3.0 | 51 | 64 | 74.8 | 66.7 | 29.941 | 7.41 | 0.0 | 0 | 0.00 | 0.00 | 0.00 | 0.00 |
| 09/01/26 1:27:35 AM | 30 | 1.0 | 3.0 | 51 | 63 | 74.8 | 66.7 | 29.941 | 7.41 | 0.0 | 0 | 0.00 | 0.00 | 0.00 | 0.00 |
| 09/01/26 1:28:29 AM | 31 | 2.0 | 3.0 | 51 | 64 | 74.8 | 66.7 | 29.940 | 7.41 | 0.0 | 0 | 0.00 | 0.00 | 0.00 | 0.00 |
| 09/01/26 1:29:21 AM | 29 | 1.0 | 3.0 | 51 | 64 | 74.8 | 66.7 | 29.941 | 7.41 | 0.0 | 0 | 0.00 | 0.00 | 0.00 | 0.00 |
| 09/01/26 1:30:33 AM | 31 | 0.0 | 3.0 | 51 | 64 | 74.8 | 66.7 | 29.939 | 7.41 | 0.0 | 0 | 0.00 | 0.00 | 0.00 | 0.00 |
| 09/01/26 1:31:22 AM | 31 | 0.0 | 3.0 | 51 | 64 | 74.8 | 66.7 | 29.940 | 7.41 | 0.0 | 0 | 0.00 | 0.00 | 0.00 | 0.00 |
| 09/01/26 1:32:34 AM | 30 | 0.0 | 3.0 | 51 | 63 | 74.8 | 66.7 | 29.940 | 7.41 | 0.0 | 0 | 0.00 | 0.00 | 0.00 | 0.00 |
| 09/01/26 1:33:26 AM | 34 | 0.0 | 3.0 | 51 | 63 | 74.8 | 66.7 | 29.940 | 7.41 | 0.0 | 0 | 0.00 | 0.00 | 0.00 | 0.00 |
| 09/01/26 1:34:17 AM | 32 | 0.0 | 3.0 | 51 | 63 | 74.7 | 66.6 | 29.940 | 7.41 | 0.0 | 0 | 0.00 | 0.00 | 0.00 | 0.00 |
| 09/01/26 1:35:30 AM | 32 | 0.0 | 3.0 | 51 | 63 | 74.7 | 66.6 | 29.941 | 7.41 | 0.0 | 0 | 0.00 | 0.00 | 0.00 | 0.00 |
| 09/01/26 1:36:22 AM | 32 | 0.0 | 3.0 | 51 | 63 | 74.7 | 66.6 | 29.939 | 7.41 | 0.0 | 0 | 0.00 | 0.00 | 0.00 | 0.00 |
| 09/01/26 1:37:28 AM | 32 | 0.0 | 3.0 | 51 | 63 | 74.7 | 66.6 | 29.940 | 7.41 | 0.0 | 0 | 0.00 | 0.00 | 0.00 | 0.00 |
| 09/01/26 1:38:20 AM | 26 | 0.0 | 3.0 | 51 | 63 | 74.7 | 66.6 | 29.940 | 7.41 | 0.0 | 0 | 0.00 | 0.00 | 0.00 | 0.00 |
| 09/01/26 1:39:32 AM | 28 | 0.0 | 3.0 | 51 | 63 | 74.7 | 66.5 | 29.938 | 7.41 | 0.0 | 0 | 0.00 | 0.00 | 0.00 | 0.00 |
| 09/01/26 1:40:24 AM | 29 | 0.0 | 3.0 | 51 | 63 | 74.7 | 66.5 | 29.938 | 7.41 | 0.0 | 0 | 0.00 | 0.00 | 0.00 | 0.00 |
| 09/01/26 1:41:37 AM | 30 | 0.0 | 3.0 | 51 | 63 | 74.7 | 66.5 | 29.939 | 7.41 | 0.0 | 0 | 0.00 | 0.00 | 0.00 | 0.00 |
| 09/01/26 1:42:22 AM | 28 | 0.0 | 3.0 | 51 | 63 | 74.7 | 66.5 | 29.938 | 7.41 | 0.0 | 0 | 0.00 | 0.00 | 0.00 | 0.00 |
| 09/01/26 1:43:35 AM | 28 | 0.0 | 3.0 | 51 | 63 | 74.6 | 66.4 | 29.938 | 7.41 | 0.0 | 0 | 0.00 | 0.00 | 0.00 | 0.00 |
| 09/01/26 1:44:26 AM | 31 | 0.0 | 3.0 | 51 | 63 | 74.7 | 66.4 | 29.939 | 7.41 | 0.0 | 0 | 0.00 | 0.00 | 0.00 | 0.00 |
| 09/01/26 1:45:42 AM | 29 | 0.0 | 3.0 | 51 | 63 | 74.7 | 66.3 | 29.941 | 7.41 | 0.0 | 0 | 0.00 | 0.00 | 0.00 | 0.00 |
| 09/01/26 1:46:33 AM | 30 | 0.0 | 3.0 | 51 | 63 | 74.7 | 66.3 | 29.941 | 7.41 | 0.0 | 0 | 0.00 | 0.00 | 0.00 | 0.00 |
| 09/01/26 1:47:25 AM | 30 | 0.0 | 3.0 | 51 | 63 | 74.6 | 66.3 | 29.941 | 7.41 | 0.0 | 0 | 0.00 | 0.00 | 0.00 | 0.00 |
| 09/01/26 1:48:32 AM | 32 | 0.0 | 3.0 | 51 | 63 | 74.6 | 66.2 | 29.942 | 7.41 | 0.0 | 0 | 0.00 | 0.00 | 0.00 | 0.00 |
| 09/01/26 1:49:23 AM | 30 | 0.0 | 3.0 | 51 | 63 | 74.6 | 66.2 | 29.942 | 7.41 | 0.0 | 0 | 0.00 | 0.00 | 0.00 | 0.00 |
| 09/01/26 1:50:36 AM | 32 | 0.0 | 3.0 | 51 | 62 | 74.6 | 66.2 | 29.944 | 7.41 | 0.0 | 0 | 0.00 | 0.00 | 0.00 | 0.00 |
| 09/01/26 1:51:27 AM | 30 | 0.0 | 3.0 | 51 | 62 | 74.6 | 66.1 | 29.944 | 7.41 | 0.0 | 0 | 0.00 | 0.00 | 0.00 | 0.00 |
| 09/01/26 1:52:19 AM | 32 | 0.0 | 3.0 | 51 | 62 | 74.6 | 66.1 | 29.941 | 7.41 | 0.0 | 0 | 0.00 | 0.00 | 0.00 | 0.00 |
| 09/01/26 1:53:26 AM | 32 | 0.0 | 3.0 | 51 | 62 | 74.6 | 66.0 | 29.944 | 7.41 | 0.0 | 0 | 0.00 | 0.00 | 0.00 | 0.00 |
| 09/01/26 1:54:20 AM | 30 | 0.0 | 3.0 | 51 | 62 | 74.7 | 65.9 | 29.944 | 7.41 | 0.0 | 0 | 0.00 | 0.00 | 0.00 | 0.00 |
| 09/01/26 1:55:30 AM | 32 | 0.0 | 3.0 | 51 | 62 | 74.6 | 65.9 | 29.944 | 7.41 | 0.0 | 0 | 0.00 | 0.00 | 0.00 | 0.00 |
| 09/01/26 1:56:24 AM | 31 | 0.0 | 3.0 | 51 | 63 | 74.6 | 65.9 | 29.944 | 7.41 | 0.0 | 0 | 0.00 | 0.00 | 0.00 | 0.00 |
| 09/01/26 1:57:16 AM | 35 | 0.0 | 3.0 | 51 | 63 | 74.6 | 65.8 | 29.942 | 7.41 | 0.0 | 0 | 0.00 | 0.00 | 0.00 | 0.00 |
| 09/01/26 1:58:25 AM | 29 | 0.0 | 3.0 | 51 | 63 | 74.6 | 65.8 | 29.943 | 7.41 | 0.0 | 0 | 0.00 | 0.00 | 0.00 | 0.00 |
| 09/01/26 1:59:17 AM | 32 | 0.0 | 3.0 | 51 | 63 | 74.6 | 65.8 | 29.943 | 7.41 | 0.0 | 0 | 0.00 | 0.00 | 0.00 | 0.00 |
| 09/01/26 2:00:30 AM | 26 | 0.0 | 3.0 | 51 | 63 | 74.6 | 65.7 | 29.944 | 7.41 | 0.0 | 0 | 0.00 | 0.00 | 0.00 | 0.00 |
| 09/01/26 2:01:21 AM | 30 | 0.0 | 3.0 | 51 | 63 | 74.6 | 65.7 | 29.943 | 7.41 | 0.0 | 0 | 0.00 | 0.00 | 0.00 | 0.00 |
| 09/01/26 2:02:34 AM | 31 | 0.0 | 3.0 | 51 | 63 | 74.6 | 65.7 | 29.946 | 7.41 | 0.0 | 0 | 0.00 | 0.00 | 0.00 | 0.00 |
| 09/01/26 2:03:25 AM | 28 | 0.0 | 3.0 | 51 | 63 | 74.6 | 65.6 | 29.944 | 7.41 | 0.0 | 0 | 0.00 | 0.00 | 0.00 | 0.00 |
| 09/01/26 2:04:32 AM | 29 | 0.0 | 3.0 | 51 | 64 | 74.6 | 65.6 | 29.945 | 7.41 | 0.0 | 0 | 0.00 | 0.00 | 0.00 | 0.00 |
| 09/01/26 2:05:23 AM | 32 | 0.0 | 3.0 | 51 | 64 | 74.5 | 65.6 | 29.941 | 7.41 | 0.0 | 0 | 0.00 | 0.00 | 0.00 | 0.00 |
| 09/01/26 2:06:36 AM | 31 | 0.0 | 3.0 | 51 | 64 | 74.5 | 65.5 | 29.941 | 7.41 | 0.0 | 0 | 0.00 | 0.00 | 0.00 | 0.00 |
| 09/01/26 2:07:28 AM | 26 | 2.0 | 3.0 | 51 | 64 | 74.5 | 65.5 | 29.942 | 7.41 | 0.0 | 0 | 0.00 | 0.00 | 0.00 | 0.00 |
University Police wind advisory reference
For campus closure information please call the campus Emergency Hotline at (909) 537-5999
© All rights reserved. Unauthorized duplication or distribution is prohibited
Never base important decisions on this or any weather information obtained from the Internet
California State University, San Bernardino
5500 University Parkway, San Bernardino, CA. 92407
Phone: (909) 537-5108, Email: Weather Webmaster
Last Updated: